Location: Mason
(37.5237°N, 89.2543°W)
Time: 19:33:48
(UTC+00:00)

SL-4 R/B - Pass Details

Date: 08 December 2021
Orbit: 427 x 660 km, 51.6° (Epoch: 17 January)

Event Time Altitude Azimuth Distance (km) Brightness Sun altitude
Exits shadow 12:27:10 - 260° (W) 2,006 4.4 -6.6°
Reaches altitude 10° 12:28:23 10° 268° (W) 1,563 3.8 -6.4°
Maximum altitude 12:31:29 29° 330° (NNW) 881 2.7 -5.8°
Drops below altitude 10° 12:34:45 10° 32° (NNE) 1,656 4.6 -5.2°
Sets 12:37:12 0° 44° (NE) 2,583 5.7 -4.8°
